sat.trackr.live / text

‹ back to catalog

STARLINK-34052

NORAD 63874 · 2025-094L

PAYLOAD ACTIVE UNKNOWN

§ Identity

Operator
Country
US
Launch date
2025-05-10
Launch site
AFWTR
Launch vehicle
Mass (kg)
RCS (m²)

Purposes: comms

External: N2YO · Heavens-Above · Gunter

§ Orbital elements

Epoch: 2026-09-20T14:36:58.603104Z

Period
94.14 min
Inclination
69.9982°
Eccentricity
0.0003444
Mean motion
15.29586919 rev/d
Perigee alt
474.7 km
Apogee alt
479.4 km
Semi-major
6,855.2 km
B*
2.4759e-4
RAAN
100.4715°
Arg perigee
280.8199°
Mean anomaly
79.2589°
Rev number
7,646

§ Raw data

STARLINK-340521 63874U 25094L   26263.60901161  .00006998  00000+0  24759-3 0  99922 63874  69.9982 100.4715 0003444 280.8199  79.2589 15.29586919 76461

JSON: /api/v1/satellites/63874 · /tle

For live sub-satellite position, see the globe view (requires WebGL).

§ Visibility from observer

Set your observer location to see the next 7 days of passes ≥ 10°. The values pass through the URL so the page stays shareable.

No JS? Fill the form by hand. The geolocation button needs JavaScript.